TAM3128 SBGR-SBCG

Flight info

Callsign TAM3128
Flight time 1h 24m
Altitude 36000
Route EGEVA UM415 FIGOS
Aircraft A320/M-SDE3FGHIRWY/LB1

Departure

Time 2026-05-05 01:24
Airport São Paulo/Guarulhos–Governor André Franco Montoro International Airport (SBGR)

Arrival

Time 2026-05-05 02:49
Airport Campo Grande Airport (SBCG)
Time Latitude Longitude Altitude Speed Heading
2026-05-05 01:07 -23.42895 -46.48060 2465 ft 0 kts 84°
2026-05-05 01:15 -23.42896 -46.48072 2465 ft 4 kts 89°
2026-05-05 01:16 -23.42894 -46.48101 2468 ft 4 kts 105°
2026-05-05 01:16 -23.42884 -46.48128 2465 ft 4 kts 126°
2026-05-05 01:16 -23.42865 -46.48146 2465 ft 4 kts 164°
2026-05-05 01:16 -23.42858 -46.48148 2465 ft 0 kts 175°
2026-05-05 01:19 -23.42861 -46.48148 2465 ft 1 kts 175°
2026-05-05 01:19 -23.42875 -46.48147 2465 ft 4 kts 174°
2026-05-05 01:19 -23.42925 -46.48141 2465 ft 10 kts 174°
2026-05-05 01:19 -23.42999 -46.48135 2468 ft 11 kts 175°
2026-05-05 01:20 -23.43047 -46.48188 2465 ft 12 kts 264°
2026-05-05 01:20 -23.43055 -46.48282 2469 ft 13 kts 264°
2026-05-05 01:20 -23.43065 -46.48388 2465 ft 14 kts 261°
2026-05-05 01:20 -23.43145 -46.48413 2468 ft 14 kts 162°
2026-05-05 01:21 -23.43243 -46.48383 2467 ft 14 kts 164°
2026-05-05 01:21 -23.43299 -46.48365 2468 ft 0 kts 164°
2026-05-05 01:23 -23.43303 -46.48364 2468 ft 3 kts 164°
2026-05-05 01:23 -23.43349 -46.48349 2464 ft 11 kts 162°
2026-05-05 01:23 -23.43417 -46.48297 2461 ft 14 kts 93°
2026-05-05 01:23 -23.43385 -46.48173 2466 ft 27 kts 73°
2026-05-05 01:24 -23.43263 -46.47727 2461 ft 93 kts 73°
2026-05-05 01:24 -23.43031 -46.46866 2467 ft 142 kts 73°
2026-05-05 01:24 -23.42711 -46.45693 2547 ft 173 kts 73°
2026-05-05 01:24 -23.42345 -46.44466 3211 ft 170 kts 72°
2026-05-05 01:25 -23.41981 -46.43234 3807 ft 174 kts 72°
2026-05-05 01:25 -23.41593 -46.41904 4080 ft 195 kts 72°
2026-05-05 01:25 -23.41163 -46.40414 4312 ft 218 kts 72°
2026-05-05 01:25 -23.40685 -46.38749 4608 ft 242 kts 72°
2026-05-05 01:26 -23.40215 -46.36902 5045 ft 264 kts 83°
2026-05-05 01:26 -23.40386 -46.34877 5675 ft 276 kts 108°
2026-05-05 01:26 -23.41033 -46.32882 6473 ft 282 kts 109°
2026-05-05 01:26 -23.41702 -46.30853 7285 ft 287 kts 109°
2026-05-05 01:27 -23.42382 -46.28791 8062 ft 292 kts 109°
2026-05-05 01:27 -23.43202 -46.26757 8802 ft 297 kts 126°
2026-05-05 01:27 -23.44767 -46.25321 9492 ft 298 kts 159°
2026-05-05 01:27 -23.46787 -46.24975 10207 ft 296 kts 188°
2026-05-05 01:28 -23.48861 -46.25332 10623 ft 312 kts 192°
2026-05-05 01:28 -23.51045 -46.25878 10779 ft 333 kts 201°
2026-05-05 01:28 -23.53142 -46.27062 11087 ft 346 kts 217°
2026-05-05 01:28 -23.54942 -46.28823 11691 ft 349 kts 230°
2026-05-05 01:29 -23.56305 -46.31014 12349 ft 352 kts 244°
2026-05-05 01:29 -23.57112 -46.33540 13009 ft 355 kts 257°
2026-05-05 01:29 -23.57652 -46.36177 13704 ft 357 kts 257°
2026-05-05 01:29 -23.58179 -46.38832 14365 ft 360 kts 257°
2026-05-05 01:30 -23.58703 -46.41508 15007 ft 362 kts 257°
2026-05-05 01:30 -23.59231 -46.44200 15634 ft 364 kts 257°
2026-05-05 01:30 -23.59765 -46.46909 16225 ft 367 kts 257°
2026-05-05 01:30 -23.60304 -46.49634 16830 ft 369 kts 257°
2026-05-05 01:31 -23.60842 -46.52380 17421 ft 372 kts 258°
2026-05-05 01:31 -23.61317 -46.55160 18006 ft 374 kts 260°
2026-05-05 01:31 -23.61733 -46.57971 18613 ft 377 kts 261°
2026-05-05 01:31 -23.62123 -46.60806 19204 ft 379 kts 261°
2026-05-05 01:32 -23.62561 -46.63654 19781 ft 382 kts 256°
2026-05-05 01:32 -23.63418 -46.66402 20350 ft 385 kts 245°
2026-05-05 01:32 -23.64747 -46.68946 20909 ft 388 kts 238°
2026-05-05 01:32 -23.66202 -46.71436 21452 ft 390 kts 238°
2026-05-05 01:33 -23.67589 -46.73988 21953 ft 393 kts 245°
2026-05-05 01:33 -23.68447 -46.76821 22412 ft 396 kts 258°
2026-05-05 01:33 -23.68625 -46.79784 22862 ft 401 kts 272°
2026-05-05 01:33 -23.68107 -46.82785 23314 ft 407 kts 286°
2026-05-05 01:34 -23.66888 -46.85591 23738 ft 414 kts 300°
2026-05-05 01:34 -23.65251 -46.88205 24144 ft 418 kts 301°
2026-05-05 01:34 -23.63592 -46.90812 24560 ft 420 kts 301°
2026-05-05 01:34 -23.61918 -46.93435 24971 ft 423 kts 301°
2026-05-05 01:35 -23.60236 -46.96071 25353 ft 424 kts 301°
2026-05-05 01:35 -23.58548 -46.98720 25742 ft 426 kts 301°
2026-05-05 01:35 -23.57426 -47.00482 25992 ft 427 kts 301°
2026-05-05 01:35 -23.55731 -47.03149 26377 ft 429 kts 301°
2026-05-05 01:36 -23.54032 -47.05827 26748 ft 430 kts 301°
2026-05-05 01:36 -23.52326 -47.08514 27117 ft 432 kts 301°
2026-05-05 01:36 -23.50613 -47.11209 27469 ft 434 kts 301°
2026-05-05 01:36 -23.48893 -47.13915 27824 ft 435 kts 300°
2026-05-05 01:37 -23.47169 -47.16630 28165 ft 437 kts 300°
2026-05-05 01:37 -23.45435 -47.19357 28493 ft 439 kts 300°
2026-05-05 01:37 -23.43691 -47.22089 28816 ft 440 kts 300°
2026-05-05 01:37 -23.41940 -47.24825 29191 ft 440 kts 300°
2026-05-05 01:38 -23.40198 -47.27551 29664 ft 438 kts 300°
2026-05-05 01:38 -23.38467 -47.30265 30143 ft 435 kts 300°
2026-05-05 01:38 -23.36745 -47.32967 30610 ft 433 kts 300°
2026-05-05 01:38 -23.35030 -47.35657 31079 ft 432 kts 300°
2026-05-05 01:39 -23.33318 -47.38336 31507 ft 431 kts 300°
2026-05-05 01:39 -23.31609 -47.41009 31919 ft 430 kts 300°
2026-05-05 01:39 -23.29905 -47.43676 32323 ft 429 kts 300°
2026-05-05 01:39 -23.28201 -47.46333 32740 ft 428 kts 300°
2026-05-05 01:40 -23.26499 -47.48983 33139 ft 427 kts 300°
2026-05-05 01:40 -23.24801 -47.51628 33533 ft 426 kts 299°
2026-05-05 01:40 -23.23133 -47.54231 33917 ft 425 kts 299°
2026-05-05 01:40 -23.21445 -47.56870 34317 ft 425 kts 299°
2026-05-05 01:41 -23.19780 -47.59515 34713 ft 422 kts 296°
2026-05-05 01:41 -23.18481 -47.62329 35084 ft 413 kts 285°
2026-05-05 01:41 -23.17702 -47.65297 35440 ft 405 kts 275°
2026-05-05 01:41 -23.17430 -47.68316 35787 ft 400 kts 268°
2026-05-05 01:42 -23.17329 -47.71331 36111 ft 399 kts 268°
2026-05-05 01:42 -23.17222 -47.74346 36214 ft 401 kts 268°
2026-05-05 01:42 -23.16998 -47.80447 36229 ft 406 kts 269°
2026-05-05 01:43 -23.16762 -47.86578 36229 ft 406 kts 269°
2026-05-05 01:43 -23.16528 -47.92714 36229 ft 406 kts 269°
2026-05-05 01:44 -23.16292 -47.98849 36229 ft 406 kts 269°
2026-05-05 01:44 -23.16054 -48.04986 36233 ft 407 kts 268°
2026-05-05 01:45 -23.15822 -48.11124 36238 ft 407 kts 268°
2026-05-05 01:45 -23.15580 -48.17265 36242 ft 407 kts 268°
2026-05-05 01:46 -23.15335 -48.23402 36242 ft 407 kts 269°
2026-05-05 01:46 -23.15080 -48.29536 36242 ft 407 kts 268°
2026-05-05 01:47 -23.14831 -48.35685 36238 ft 407 kts 268°
2026-05-05 01:47 -23.14581 -48.41784 36239 ft 407 kts 269°
2026-05-05 01:48 -23.14324 -48.47925 36238 ft 407 kts 269°
2026-05-05 01:48 -23.14059 -48.54066 36236 ft 407 kts 270°
2026-05-05 01:49 -23.12734 -48.60111 36236 ft 417 kts 283°
2026-05-05 01:49 -23.10839 -48.66059 36233 ft 417 kts 283°
2026-05-05 01:50 -23.08951 -48.72009 36230 ft 416 kts 283°
2026-05-05 01:50 -23.07067 -48.77955 36228 ft 416 kts 283°
2026-05-05 01:51 -23.05177 -48.83901 36224 ft 417 kts 283°
2026-05-05 01:51 -23.03281 -48.89849 36221 ft 417 kts 283°
2026-05-05 01:52 -23.01393 -48.95752 36219 ft 417 kts 283°
2026-05-05 01:52 -22.99496 -49.01694 36217 ft 416 kts 283°
2026-05-05 01:53 -22.97597 -49.07632 36213 ft 417 kts 283°
2026-05-05 01:53 -22.95697 -49.13571 36211 ft 417 kts 283°
2026-05-05 01:54 -22.93743 -49.19503 36208 ft 419 kts 285°
2026-05-05 01:54 -22.91575 -49.25376 36210 ft 420 kts 286°
2026-05-05 01:55 -22.89359 -49.31232 36210 ft 419 kts 285°
2026-05-05 01:55 -22.87427 -49.37164 36214 ft 416 kts 282°
2026-05-05 01:56 -22.85680 -49.43131 36209 ft 415 kts 281°
2026-05-05 01:56 -22.83905 -49.49087 36202 ft 416 kts 283°
2026-05-05 01:57 -22.81941 -49.54995 36198 ft 417 kts 284°
2026-05-05 01:57 -22.79903 -49.60882 36197 ft 417 kts 284°
2026-05-05 01:58 -22.77890 -49.66776 36197 ft 417 kts 284°
2026-05-05 01:58 -22.75911 -49.72675 36196 ft 416 kts 284°
2026-05-05 01:59 -22.73936 -49.78572 36195 ft 416 kts 284°
2026-05-05 01:59 -22.71951 -49.84465 36194 ft 416 kts 284°
2026-05-05 02:00 -22.69957 -49.90358 36195 ft 417 kts 284°
2026-05-05 02:00 -22.67975 -49.96211 36196 ft 417 kts 284°
2026-05-05 02:01 -22.65975 -50.02104 36193 ft 417 kts 284°
2026-05-05 02:01 -22.63973 -50.07992 36187 ft 417 kts 284°
2026-05-05 02:02 -22.61970 -50.13886 36192 ft 417 kts 283°
2026-05-05 02:02 -22.59980 -50.19786 36187 ft 417 kts 283°
2026-05-05 02:03 -22.57989 -50.25682 36190 ft 417 kts 283°
2026-05-05 02:03 -22.55975 -50.31571 36190 ft 417 kts 284°
2026-05-05 02:04 -22.53933 -50.37452 36183 ft 418 kts 284°
2026-05-05 02:04 -22.51908 -50.43302 36185 ft 418 kts 284°
2026-05-05 02:05 -22.49882 -50.49183 36180 ft 418 kts 284°
2026-05-05 02:05 -22.47855 -50.55073 36180 ft 418 kts 284°
2026-05-05 02:06 -22.45818 -50.60952 36178 ft 418 kts 284°
2026-05-05 02:06 -22.43777 -50.66831 36178 ft 418 kts 284°
2026-05-05 02:07 -22.41732 -50.72714 36171 ft 418 kts 284°
2026-05-05 02:07 -22.39684 -50.78599 36172 ft 418 kts 284°
2026-05-05 02:08 -22.37637 -50.84488 36170 ft 419 kts 284°
2026-05-05 02:08 -22.35578 -50.90376 36169 ft 419 kts 284°
2026-05-05 02:09 -22.33517 -50.96265 36164 ft 419 kts 284°
2026-05-05 02:09 -22.31461 -51.02155 36162 ft 419 kts 284°
2026-05-05 02:10 -22.29398 -51.08047 36160 ft 420 kts 284°
2026-05-05 02:10 -22.27333 -51.13939 36159 ft 420 kts 284°
2026-05-05 02:11 -22.25284 -51.19791 36157 ft 420 kts 284°
2026-05-05 02:11 -22.23211 -51.25684 36151 ft 420 kts 284°
2026-05-05 02:12 -22.20090 -51.34528 36148 ft 420 kts 284°
2026-05-05 02:13 -22.18018 -51.40428 36147 ft 421 kts 284°
2026-05-05 02:13 -22.15952 -51.46331 36143 ft 420 kts 283°
2026-05-05 02:14 -22.13930 -51.52252 36148 ft 421 kts 283°
2026-05-05 02:14 -22.11913 -51.58182 36149 ft 421 kts 283°
2026-05-05 02:15 -22.09881 -51.64111 36150 ft 421 kts 283°
2026-05-05 02:15 -22.07837 -51.70040 36149 ft 422 kts 283°
2026-05-05 02:16 -22.05792 -51.75969 36148 ft 422 kts 283°
2026-05-05 02:16 -22.03768 -51.81859 36147 ft 422 kts 283°
2026-05-05 02:17 -22.01720 -51.87794 36150 ft 422 kts 284°
2026-05-05 02:17 -21.99663 -51.93722 36149 ft 422 kts 283°
2026-05-05 02:18 -21.97611 -51.99648 36148 ft 422 kts 283°
2026-05-05 02:18 -21.95559 -52.05565 36145 ft 422 kts 283°
2026-05-05 02:19 -21.93504 -52.11479 36143 ft 421 kts 283°
2026-05-05 02:19 -21.91450 -52.17388 36142 ft 421 kts 284°
2026-05-05 02:20 -21.89386 -52.23299 36144 ft 422 kts 284°
2026-05-05 02:20 -21.87326 -52.29210 36145 ft 422 kts 284°
2026-05-05 02:21 -21.85258 -52.35128 36146 ft 423 kts 284°
2026-05-05 02:21 -21.83198 -52.41003 36147 ft 422 kts 284°
2026-05-05 02:22 -21.81127 -52.46918 36152 ft 422 kts 284°
2026-05-05 02:22 -21.79049 -52.52833 36151 ft 423 kts 284°
2026-05-05 02:23 -21.76967 -52.58748 36151 ft 423 kts 284°
2026-05-05 02:23 -21.74885 -52.64662 36146 ft 423 kts 284°
2026-05-05 02:24 -21.72803 -52.70578 36144 ft 423 kts 284°
2026-05-05 02:24 -21.70715 -52.76491 36146 ft 423 kts 284°
2026-05-05 02:25 -21.68624 -52.82400 36142 ft 423 kts 284°
2026-05-05 02:25 -21.66530 -52.88305 36136 ft 423 kts 284°
2026-05-05 02:26 -21.64439 -52.94215 36139 ft 423 kts 283°
2026-05-05 02:26 -21.62344 -53.00129 36132 ft 423 kts 284°
2026-05-05 02:27 -21.60249 -53.06040 36137 ft 423 kts 284°
2026-05-05 02:27 -21.58165 -53.11910 36127 ft 423 kts 284°
2026-05-05 02:28 -21.56069 -53.17804 36135 ft 423 kts 284°
2026-05-05 02:28 -21.53965 -53.23698 36131 ft 422 kts 284°
2026-05-05 02:29 -21.51855 -53.29589 36137 ft 423 kts 284°
2026-05-05 02:29 -21.49750 -53.35497 36136 ft 423 kts 283°
2026-05-05 02:30 -21.47649 -53.41389 36125 ft 423 kts 283°
2026-05-05 02:30 -21.45442 -53.47256 35967 ft 429 kts 290°
2026-05-05 02:30 -21.44447 -53.49107 35801 ft 435 kts 296°
2026-05-05 02:31 -21.42688 -53.51771 35553 ft 438 kts 298°
2026-05-05 02:31 -21.40911 -53.54429 35303 ft 438 kts 298°
2026-05-05 02:31 -21.39136 -53.57099 34512 ft 442 kts 298°
2026-05-05 02:31 -21.37348 -53.59810 33574 ft 447 kts 299°
2026-05-05 02:32 -21.35545 -53.62552 32588 ft 452 kts 300°
2026-05-05 02:32 -21.33724 -53.65323 31561 ft 457 kts 300°
2026-05-05 02:32 -21.31291 -53.69013 30213 ft 459 kts 301°
2026-05-05 02:32 -21.30037 -53.70909 29462 ft 463 kts 301°
2026-05-05 02:33 -21.28187 -53.73699 28897 ft 454 kts 301°
2026-05-05 02:33 -21.26363 -53.76444 28205 ft 450 kts 301°
2026-05-05 02:33 -21.24556 -53.79167 27517 ft 446 kts 301°
2026-05-05 02:33 -21.22766 -53.81867 26833 ft 442 kts 302°
2026-05-05 02:34 -21.20990 -53.84545 26157 ft 439 kts 302°
2026-05-05 02:34 -21.19229 -53.87202 25497 ft 436 kts 302°
2026-05-05 02:34 -21.17504 -53.89801 24844 ft 433 kts 302°
2026-05-05 02:34 -21.15765 -53.92420 24193 ft 430 kts 302°
2026-05-05 02:35 -21.14040 -53.95020 23548 ft 427 kts 302°
2026-05-05 02:35 -21.12327 -53.97602 22919 ft 424 kts 302°
2026-05-05 02:35 -21.10628 -54.00168 22309 ft 421 kts 302°
2026-05-05 02:35 -21.08940 -54.02716 21714 ft 418 kts 303°
2026-05-05 02:36 -21.07259 -54.05245 21138 ft 415 kts 303°
2026-05-05 02:36 -21.05588 -54.07756 20586 ft 413 kts 303°
2026-05-05 02:36 -21.03929 -54.10250 20045 ft 410 kts 303°
2026-05-05 02:36 -21.02277 -54.12729 19499 ft 408 kts 303°
2026-05-05 02:37 -21.00635 -54.15192 18958 ft 405 kts 303°
2026-05-05 02:37 -20.99001 -54.17638 18404 ft 403 kts 303°
2026-05-05 02:37 -20.97374 -54.20071 17848 ft 401 kts 304°
2026-05-05 02:37 -20.95758 -54.22490 17265 ft 398 kts 304°
2026-05-05 02:38 -20.94155 -54.24896 16690 ft 396 kts 304°
2026-05-05 02:38 -20.92562 -54.27287 16097 ft 393 kts 304°
2026-05-05 02:38 -20.90981 -54.29661 15488 ft 390 kts 304°
2026-05-05 02:38 -20.89429 -54.32029 14861 ft 387 kts 303°
2026-05-05 02:39 -20.87984 -54.34442 14278 ft 384 kts 301°
2026-05-05 02:39 -20.86624 -54.36883 13657 ft 380 kts 300°
2026-05-05 02:39 -20.85310 -54.39325 13033 ft 377 kts 300°
2026-05-05 02:39 -20.84012 -54.41749 12433 ft 374 kts 300°
2026-05-05 02:40 -20.82718 -54.44146 11827 ft 371 kts 301°
2026-05-05 02:40 -20.81422 -54.46515 11227 ft 367 kts 301°
2026-05-05 02:40 -20.80146 -54.48820 10719 ft 362 kts 302°
2026-05-05 02:40 -20.78885 -54.51082 10591 ft 347 kts 302°
2026-05-05 02:41 -20.77673 -54.53246 10458 ft 333 kts 302°
2026-05-05 02:41 -20.76507 -54.55325 10330 ft 320 kts 302°
2026-05-05 02:41 -20.75382 -54.57329 10202 ft 309 kts 303°
2026-05-05 02:41 -20.74295 -54.59267 10036 ft 300 kts 302°
2026-05-05 02:42 -20.73226 -54.61172 9585 ft 301 kts 303°
2026-05-05 02:42 -20.72162 -54.63068 9132 ft 294 kts 303°
2026-05-05 02:42 -20.71117 -54.64932 8471 ft 291 kts 303°
2026-05-05 02:42 -20.70081 -54.66782 7827 ft 289 kts 303°
2026-05-05 02:43 -20.69057 -54.68616 7186 ft 287 kts 303°
2026-05-05 02:43 -20.68044 -54.70435 6603 ft 282 kts 303°
2026-05-05 02:43 -20.67055 -54.72159 6443 ft 261 kts 308°
2026-05-05 02:43 -20.65925 -54.73571 6316 ft 241 kts 315°
2026-05-05 02:44 -20.64819 -54.74860 5985 ft 231 kts 315°
2026-05-05 02:44 -20.63771 -54.76082 5837 ft 215 kts 315°
2026-05-05 02:44 -20.62775 -54.77228 5515 ft 207 kts 320°
2026-05-05 02:44 -20.61608 -54.78080 5090 ft 201 kts 339°
2026-05-05 02:45 -20.60260 -54.78434 4776 ft 199 kts 359°
2026-05-05 02:45 -20.58886 -54.78274 4591 ft 199 kts 18°
2026-05-05 02:45 -20.57663 -54.77651 4368 ft 193 kts 36°
2026-05-05 02:45 -20.56660 -54.76727 4130 ft 188 kts 42°
2026-05-05 02:46 -20.55699 -54.75796 3879 ft 185 kts 42°
2026-05-05 02:46 -20.54772 -54.74900 3634 ft 179 kts 42°
2026-05-05 02:46 -20.53886 -54.74044 3405 ft 165 kts 42°
2026-05-05 02:46 -20.53071 -54.73257 3193 ft 153 kts 42°
2026-05-05 02:47 -20.52290 -54.72504 3002 ft 151 kts 43°
2026-05-05 02:47 -20.51510 -54.71750 2796 ft 151 kts 42°
2026-05-05 02:47 -20.50732 -54.70999 2606 ft 151 kts 41°
2026-05-05 02:47 -20.49956 -54.70250 2409 ft 150 kts 42°
2026-05-05 02:48 -20.49182 -54.69505 2209 ft 149 kts 43°
2026-05-05 02:48 -20.48411 -54.68763 2011 ft 149 kts 41°
2026-05-05 02:48 -20.47644 -54.68022 1847 ft 146 kts 41°
2026-05-05 02:48 -20.46994 -54.67392 1838 ft 105 kts 42°
2026-05-05 02:49 -20.46534 -54.66950 1838 ft 75 kts 42°
2026-05-05 02:49 -20.46281 -54.66706 1837 ft 32 kts 41°
2026-05-05 02:49 -20.46164 -54.66582 1838 ft 14 kts 64°
2026-05-05 02:49 -20.46197 -54.66492 1839 ft 14 kts 128°
2026-05-05 02:50 -20.46245 -54.66436 1839 ft 0 kts 134°
2026-05-05 02:50 -20.46259 -54.66431 1839 ft 6 kts 173°
2026-05-05 02:50 -20.46292 -54.66427 1839 ft 2 kts 77°
2026-05-05 02:50 -20.46240 -54.66447 1839 ft 17 kts 320°
2026-05-05 02:51 -20.46145 -54.66568 1839 ft 23 kts 307°
2026-05-05 02:51 -20.46018 -54.66655 1839 ft 20 kts 339°
2026-05-05 02:51 -20.45907 -54.66702 1839 ft 14 kts 338°
2026-05-05 02:51 -20.45835 -54.66763 1839 ft 14 kts 276°
2026-05-05 02:52 -20.45844 -54.66870 1839 ft 10 kts 264°
2026-05-05 02:52 -20.45811 -54.66893 1839 ft 7 kts 354°
2026-05-05 02:52 -20.45790 -54.66895 1839 ft 0 kts 354°